Date,TemperatureHighF,TemperatureAvgF,TemperatureLowF,DewpointHighF,DewpointAvgF,DewpointLowF,HumidityHigh,HumidityAvg,HumidityLow,PressureMaxIn,PressureMinIn,WindSpeedMaxMPH,WindSpeedAvgMPH,GustSpeedMaxMPH,PrecipitationSumIn
2013-9-1,92.8,75.1,56.7,49.1,37.1,25.5,40,26,15,29.95,29.83,14,5,14,0.00
2013-9-2,81.0,71.0,64.4,68.1,60.5,42.5,99,74,28,29.97,29.84,15,3,15,0.50
2013-9-3,89.4,68.9,59.9,66.6,60.7,57.2,98,78,36,30.03,29.93,19,5,19,0.78
2013-9-4,94.5,73.7,59.7,63.4,59.6,53.5,97,67,28,30.07,29.97,13,4,13,0.00
2013-9-5,91.6,76.2,65.5,61.1,56.3,46.9,76,53,23,30.05,29.88,21,7,21,0.00
2013-9-6,87.3,70.5,62.1,61.7,56.3,52.0,86,62,35,30.03,29.90,26,6,26,0.11
2013-9-7,79.7,67.0,58.6,57.4,53.9,25.2,87,65,17,30.02,29.88,20,4,20,0.00
2013-9-8,79.3,67.0,59.2,61.3,55.6,47.9,88,68,38,29.91,29.77,24,7,24,0.01
2013-9-9,80.2,66.9,56.3,55.1,46.0,37.8,77,49,23,29.97,29.80,14,4,14,0.00
2013-9-10,86.9,66.9,49.3,52.8,48.1,44.7,87,55,27,30.02,29.93,11,3,11,0.00
2013-9-11,80.4,68.8,57.9,55.5,52.2,48.9,75,57,36,30.05,29.99,20,4,20,0.00
2013-9-12,84.6,69.9,59.0,59.8,55.0,48.4,97,63,32,30.09,28.46,18,5,18,0.06
2013-9-13,76.1,66.2,59.2,58.3,54.4,49.9,81,66,48,29.99,29.84,12,4,12,0.00
2013-9-14,80.2,66.2,58.1,59.0,53.4,46.5,89,66,34,29.93,29.85,18,4,18,0.00
2013-9-15,81.3,66.9,57.9,61.4,55.5,49.4,86,69,39,29.99,29.92,14,4,14,0.04
2013-9-16,87.1,71.6,57.7,56.2,51.3,39.6,84,53,23,29.96,29.82,21,10,21,0.00
2013-9-17,84.0,69.5,56.3,56.3,48.9,37.2,83,51,21,29.88,29.62,115,10,115,0.08
2013-9-18,64.8,54.6,46.8,47.7,40.0,31.9,84,59,35,30.03,29.73,29,8,29,0.05
2013-9-19,70.7,53.2,38.3,37.7,35.1,29.6,82,54,24,30.12,30.02,11,4,11,0.00
2013-9-20,64.8,61.9,58.8,34.6,31.3,27.3,40,32,26,29.93,29.91,14,7,14,0.00
2013-9-21,85.1,68.9,54.1,40.9,33.1,24.1,55,29,13,29.91,29.67,27,10,27,0.00
2013-9-22,68.0,56.1,50.2,44.4,40.5,35.5,74,57,36,29.93,29.74,25,9,25,0.00
2013-9-23,68.7,57.6,52.0,41.8,38.3,29.5,65,49,28,30.12,29.77,30,9,30,0.00
2013-9-24,73.6,60.5,49.1,42.2,35.8,24.5,64,42,17,29.93,29.68,32,10,32,0.00
2013-9-25,56.1,48.2,41.7,45.6,39.8,34.2,93,73,50,29.72,29.55,24,6,24,0.08
2013-9-26,52.2,42.9,35.6,38.7,35.0,30.1,90,74,48,29.80,29.68,15,3,15,0.00
2013-9-27,55.2,44.5,36.0,38.3,34.3,28.1,99,70,37,30.01,29.80,21,6,21,0.01
2013-9-28,64.9,52.8,40.1,36.0,32.0,28.3,75,48,26,30.03,29.92,26,11,26,0.00
2013-9-29,68.5,59.0,51.8,42.8,33.9,24.3,60,39,24,30.03,29.77,32,12,32,0.09
2013-9-30,70.9,60.7,47.8,46.7,41.6,34.8,72,51,31,30.02,29.82,34,10,34,0.00